| time (UTC) | temp F | wind direction | speed knots | gust knots | rain 1hr in | rain 24hr in | rain mn in | humidity % | barometer mb |
| 20260505171528 | 75 | 217 | 9.6 | 16.5 | 0.00 | 0.00 | 0.00 | 46 | 1007.2 |
| 20260505171014 | 75 | 221 | 7.0 | 17.4 | 0.00 | 0.00 | 0.00 | 49 | 1007.4 |
| 20260505170512 | 74 | 168 | 9.6 | 17.4 | 0.00 | 0.00 | 0.00 | 48 | 1007.6 |
| 20260505170035 | 74 | 177 | 7.8 | 13.0 | 0.00 | 0.00 | 0.00 | 48 | 1007.4 |
| 20260505165514 | 74 | 262 | 5.2 | 13.0 | 0.00 | 0.00 | 0.00 | 48 | 1007.5 |
| 20260505165013 | 74 | 217 | 7.0 | 13.0 | 0.00 | 0.00 | 0.00 | 49 | 1007.5 |
| 20260505164534 | 73 | 223 | 4.3 | 17.4 | 0.00 | 0.00 | 0.00 | 51 | 1007.7 |
| 20260505164011 | 73 | 216 | 5.2 | 17.4 | 0.00 | 0.00 | 0.00 | 51 | 1007.7 |
| 20260505163513 | 74 | 204 | 8.7 | 16.5 | 0.00 | 0.00 | 0.00 | 51 | 1007.9 |
| 20260505163028 | 74 | 223 | 7.8 | 16.5 | 0.00 | 0.00 | 0.00 | 50 | 1007.9 |
| 20260505162518 | 74 | 182 | 9.6 | 16.5 | 0.00 | 0.00 | 0.00 | 49 | 1008.0 |
| 20260505162012 | 74 | 220 | 7.0 | 20.0 | 0.00 | 0.00 | 0.00 | 51 | 1007.9 |
| 20260505161530 | 74 | 190 | 7.0 | 22.6 | 0.00 | 0.00 | 0.00 | 52 | 1007.9 |
| 20260505161011 | 74 | 188 | 7.8 | 22.6 | 0.00 | 0.00 | 0.00 | 53 | 1008.0 |
| 20260505160516 | 73 | 215 | 5.2 | 18.2 | 0.00 | 0.00 | 0.00 | 54 | 1008.0 |
| 20260505153028 | 72 | 171 | 7.8 | 20.9 | 0.00 | 0.00 | 0.00 | 54 | 1008.6 |
| 20260505152513 | 72 | 199 | 9.6 | 20.9 | 0.00 | 0.00 | 0.00 | 53 | 1008.6 |
| 20260505152011 | 72 | 200 | 6.1 | 19.1 | 0.00 | 0.00 | 0.00 | 56 | 1008.4 |
| 20260505151535 | 71 | 193 | 11.3 | 19.1 | 0.00 | 0.00 | 0.00 | 55 | 1008.5 |
| 20260505151010 | 71 | 197 | 10.4 | 17.4 | 0.00 | 0.00 | 0.00 | 55 | 1008.6 |
| 20260505150513 | 71 | 202 | 7.8 | 15.6 | 0.00 | 0.00 | 0.00 | 57 | 1008.6 |
| 20260505140512 | 67 | 226 | 5.2 | 10.4 | 0.00 | 0.00 | 0.00 | 59 | 1008.7 |
| 20260505125013 | 64 | 186 | 6.1 | 12.2 | 0.00 | 0.00 | 0.00 | 64 | 1009.3 |
| 20260505124528 | 64 | 175 | 5.2 | 12.2 | 0.00 | 0.00 | 0.00 | 65 | 1009.2 |
| 20260505124014 | 64 | 232 | 5.2 | 11.3 | 0.00 | 0.00 | 0.00 | 65 | 1009.2 |
| 20260505123512 | 63 | 188 | 6.1 | 11.3 | 0.00 | 0.00 | 0.00 | 65 | 1009.4 |
| 20260505123030 | 63 | 190 | 7.0 | 11.3 | 0.00 | 0.00 | 0.00 | 65 | 1009.3 |
| 20260505122513 | 63 | 221 | 6.1 | 11.3 | 0.00 | 0.00 | 0.00 | 66 | 1009.1 |
| 20260505122015 | 63 | 188 | 4.3 | 11.3 | 0.00 | 0.00 | 0.00 | 66 | 1009.1 |
| 20260505121536 | 63 | 169 | 5.2 | 12.2 | 0.00 | 0.00 | 0.00 | 66 | 1009.0 |
| 20260505121010 | 63 | 234 | 6.1 | 12.2 | 0.00 | 0.00 | 0.00 | 67 | 1009.0 |
| 20260505120510 | 62 | 182 | 4.3 | 11.3 | 0.00 | 0.00 | 0.00 | 67 | 1009.0 |
| 20260505120029 | 62 | 178 | 6.1 | 11.3 | 0.00 | 0.00 | 0.00 | 68 | 1009.0 |
| 20260505115511 | 62 | 163 | 4.3 | 9.6 | 0.00 | 0.00 | 0.00 | 68 | 1009.1 |
| 20260505115011 | 61 | 180 | 4.3 | 9.6 | 0.00 | 0.00 | 0.00 | 68 | 1009.2 |
| 20260505114528 | 61 | 159 | 2.6 | 8.7 | 0.00 | 0.00 | 0.00 | 69 | 1009.1 |
| 20260505114012 | 61 | 208 | 3.5 | 8.7 | 0.00 | 0.00 | 0.00 | 69 | 1009.3 |
| 20260505113511 | 60 | 169 | 2.6 | 8.7 | 0.00 | 0.00 | 0.00 | 70 | 1009.2 |
| 20260505113039 | 60 | 205 | 2.6 | 6.1 | 0.00 | 0.00 | 0.00 | 71 | 1008.9 |
| 20260505112513 | 59 | 185 | 0.9 | 4.3 | 0.00 | 0.00 | 0.00 | 71 | 1008.9 |
| 20260505112011 | 59 | 169 | 1.7 | 4.3 | 0.00 | 0.00 | 0.00 | 71 | 1008.9 |
| 20260505111540 | 58 | 159 | 0.9 | 4.3 | 0.00 | 0.00 | 0.00 | 72 | 1008.9 |
| 20260505111017 | 58 | 149 | 1.7 | 7.8 | 0.00 | 0.00 | 0.00 | 72 | 1008.8 |
| 20260505110511 | 58 | 135 | 3.5 | 7.8 | 0.00 | 0.00 | 0.00 | 72 | 1008.8 |
| 20260505102011 | 53 | 0 | 0.0 | 0.0 | 0.00 | 0.00 | 0.00 | 80 | 1008.3 |
| 20260505101013 | 53 | 0 | 0.0 | 0.0 | 0.00 | 0.00 | 0.00 | 79 | 1008.3 |
| 20260505100513 | 54 | 0 | 0.0 | 0.0 | 0.00 | 0.00 | 0.00 | 79 | 1008.3 |
| 20260505095512 | 55 | 0 | 0.0 | 0.9 | 0.00 | 0.00 | 0.00 | 78 | 1008.2 |
| 20260505095013 | 55 | 0 | 0.0 | 3.5 | 0.00 | 0.00 | 0.00 | 77 | 1008.2 |
| 20260505094528 | 55 | 0 | 0.9 | 3.5 | 0.00 | 0.00 | 0.00 | 75 | 1008.1 |
| 20260505094012 | 55 | 192 | 0.9 | 2.6 | 0.00 | 0.00 | 0.00 | 75 | 1008.1 |
| 20260505093512 | 56 | 190 | 0.9 | 2.6 | 0.00 | 0.00 | 0.00 | 73 | 1008.1 |
| 20260505093039 | 57 | 180 | 0.9 | 5.2 | 0.00 | 0.00 | 0.00 | 72 | 1008.1 |
| 20260505092513 | 57 | 179 | 0.9 | 6.1 | 0.00 | 0.00 | 0.00 | 71 | 1008.0 |
| 20260505092013 | 57 | 166 | 2.6 | 6.1 | 0.00 | 0.00 | 0.00 | 71 | 1008.0 |
| 20260505091530 | 57 | 198 | 1.7 | 4.3 | 0.00 | 0.00 | 0.00 | 71 | 1008.0 |
| 20260505091011 | 57 | 176 | 1.7 | 3.5 | 0.00 | 0.00 | 0.00 | 71 | 1007.9 |
| 20260505090511 | 57 | 174 | 0.9 | 2.6 | 0.00 | 0.00 | 0.00 | 71 | 1007.9 |
| 20260505090032 | 57 | 174 | 0.9 | 4.3 | 0.00 | 0.00 | 0.00 | 70 | 1007.8 |
| 20260505085513 | 57 | 173 | 0.9 | 4.3 | 0.00 | 0.00 | 0.00 | 69 | 1007.8 |
| 20260505085011 | 57 | 178 | 1.7 | 4.3 | 0.00 | 0.00 | 0.00 | 69 | 1007.8 |
| 20260505084530 | 57 | 158 | 1.7 | 3.5 | 0.00 | 0.00 | 0.00 | 69 | 1007.8 |
| 20260505084011 | 57 | 162 | 0.9 | 4.3 | 0.00 | 0.00 | 0.00 | 70 | 1007.8 |
| 20260505083512 | 56 | 161 | 0.9 | 4.3 | 0.00 | 0.00 | 0.00 | 70 | 1007.8 |
| 20260505083036 | 56 | 153 | 0.9 | 6.1 | 0.00 | 0.00 | 0.00 | 70 | 1007.9 |
| 20260505082512 | 56 | 169 | 1.7 | 6.1 | 0.00 | 0.00 | 0.00 | 71 | 1008.0 |
| 20260505082014 | 55 | 180 | 1.7 | 4.3 | 0.00 | 0.00 | 0.00 | 74 | 1008.1 |
| 20260505081530 | 54 | 159 | 0.9 | 3.5 | 0.00 | 0.00 | 0.00 | 76 | 1008.2 |
| 20260505081015 | 54 | 159 | 0.9 | 3.5 | 0.00 | 0.00 | 0.00 | 74 | 1008.1 |
| 20260505080543 | 54 | 177 | 0.0 | 0.9 | 0.00 | 0.00 | 0.00 | 74 | 1008.0 |
| 20260505080030 | 55 | 0 | 0.0 | 0.0 | 0.00 | 0.00 | 0.00 | 74 | 1008.1 |
| 20260505075512 | 56 | 0 | 0.0 | 0.9 | 0.00 | 0.00 | 0.00 | 70 | 1007.9 |
| 20260505075012 | 55 | 0 | 0.0 | 1.7 | 0.00 | 0.00 | 0.00 | 71 | 1007.7 |
| 20260505074529 | 55 | 177 | 0.0 | 1.7 | 0.00 | 0.00 | 0.00 | 71 | 1007.8 |
| 20260505074012 | 55 | 178 | 0.0 | 3.5 | 0.00 | 0.00 | 0.00 | 72 | 1007.8 |
| 20260505073509 | 55 | 0 | 0.0 | 3.5 | 0.00 | 0.00 | 0.00 | 71 | 1007.8 |
| 20260505073030 | 55 | 184 | 0.0 | 2.6 | 0.00 | 0.00 | 0.00 | 73 | 1007.8 |
| 20260505072511 | 55 | 175 | 0.9 | 2.6 | 0.00 | 0.00 | 0.00 | 73 | 1008.0 |
| 20260505072009 | 55 | 0 | 0.0 | 1.7 | 0.00 | 0.00 | 0.00 | 72 | 1008.0 |
| 20260505071529 | 56 | 0 | 0.9 | 1.7 | 0.00 | 0.00 | 0.00 | 68 | 1008.0 |
| 20260505071013 | 56 | 0 | 0.0 | 2.6 | 0.00 | 0.00 | 0.00 | 68 | 1007.9 |
| 20260505070513 | 56 | 175 | 0.0 | 2.6 | 0.00 | 0.00 | 0.00 | 66 | 1008.0 |
| 20260505070030 | 57 | 175 | 0.9 | 2.6 | 0.00 | 0.00 | 0.00 | 66 | 1007.9 |
| 20260505065513 | 57 | 175 | 0.9 | 3.5 | 0.00 | 0.00 | 0.00 | 65 | 1007.9 |
| 20260505065013 | 57 | 193 | 0.9 | 3.5 | 0.00 | 0.00 | 0.00 | 66 | 1008.0 |
| 20260505064527 | 57 | 193 | 0.9 | 5.2 | 0.00 | 0.00 | 0.00 | 66 | 1008.1 |
| 20260505064011 | 56 | 189 | 1.7 | 5.2 | 0.00 | 0.00 | 0.00 | 66 | 1008.1 |
| 20260505063512 | 56 | 195 | 0.0 | 3.5 | 0.00 | 0.00 | 0.00 | 67 | 1008.0 |
| 20260505063029 | 56 | 195 | 0.9 | 4.3 | 0.00 | 0.00 | 0.00 | 66 | 1008.1 |
| 20260505062511 | 56 | 195 | 0.9 | 4.3 | 0.00 | 0.00 | 0.00 | 66 | 1008.0 |
| 20260505062010 | 57 | 204 | 1.7 | 3.5 | 0.00 | 0.00 | 0.00 | 65 | 1008.1 |
| 20260505061529 | 57 | 177 | 0.9 | 3.5 | 0.00 | 0.00 | 0.00 | 65 | 1008.2 |
| 20260505061013 | 57 | 178 | 0.9 | 3.5 | 0.00 | 0.00 | 0.00 | 65 | 1008.1 |
| 20260505060511 | 57 | 178 | 0.9 | 3.5 | 0.00 | 0.00 | 0.00 | 64 | 1008.3 |
| 20260505060026 | 57 | 184 | 0.9 | 5.2 | 0.00 | 0.00 | 0.00 | 63 | 1008.2 |
| 20260505055511 | 57 | 182 | 1.7 | 5.2 | 0.00 | 0.00 | 0.00 | 63 | 1008.2 |
| 20260505055013 | 57 | 164 | 0.9 | 5.2 | 0.00 | 0.00 | 0.00 | 63 | 1008.3 |
| 20260505054541 | 57 | 178 | 1.7 | 6.1 | 0.00 | 0.00 | 0.00 | 63 | 1008.3 |
| 20260505054015 | 58 | 187 | 2.6 | 6.1 | 0.00 | 0.00 | 0.00 | 63 | 1008.4 |
| 20260505053513 | 58 | 178 | 1.7 | 5.2 | 0.00 | 0.00 | 0.00 | 64 | 1008.4 |
| 20260505053029 | 58 | 195 | 2.6 | 5.2 | 0.00 | 0.00 | 0.00 | 62 | 1008.4 |
| 20260505052512 | 58 | 209 | 2.6 | 5.2 | 0.00 | 0.00 | 0.00 | 62 | 1008.3 |
| 20260505052012 | 58 | 190 | 1.7 | 5.2 | 0.00 | 0.00 | 0.00 | 63 | 1008.4 |
| 20260505051528 | 58 | 166 | 2.6 | 7.0 | 0.00 | 0.00 | 0.00 | 62 | 1008.3 |
| 20260505051014 | 58 | 184 | 0.9 | 7.0 | 0.00 | 0.00 | 0.00 | 62 | 1008.4 |
| 20260505050514 | 59 | 201 | 2.6 | 7.0 | 0.00 | 0.00 | 0.00 | 60 | 1008.3 |
| 20260505041531 | 57 | 177 | 1.7 | 5.2 | 0.00 | 0.00 | 0.00 | 65 | 1008.0 |
| 20260505041013 | 56 | 207 | 1.7 | 5.2 | 0.00 | 0.00 | 0.00 | 66 | 1008.1 |
| 20260505040513 | 56 | 180 | 0.9 | 3.5 | 0.00 | 0.00 | 0.00 | 67 | 1008.1 |
| 20260505040040 | 56 | 182 | 1.7 | 3.5 | 0.00 | 0.00 | 0.00 | 67 | 1008.0 |
| 20260505035514 | 55 | 0 | 0.0 | 0.9 | 0.00 | 0.00 | 0.00 | 68 | 1008.0 |
| 20260505035013 | 55 | 0 | 0.0 | 0.0 | 0.00 | 0.00 | 0.00 | 67 | 1008.0 |
| 20260505034536 | 55 | 0 | 0.0 | 2.6 | 0.00 | 0.00 | 0.00 | 68 | 1008.0 |
| 20260505034013 | 55 | 0 | 0.0 | 2.6 | 0.00 | 0.00 | 0.00 | 68 | 1008.0 |
| 20260505033513 | 56 | 0 | 0.0 | 2.6 | 0.00 | 0.00 | 0.00 | 67 | 1007.9 |
| 20260505033030 | 57 | 174 | 0.9 | 3.5 | 0.00 | 0.00 | 0.00 | 64 | 1007.8 |
| 20260505032513 | 58 | 174 | 1.7 | 4.3 | 0.00 | 0.00 | 0.00 | 62 | 1007.9 |
| 20260505032013 | 57 | 174 | 0.9 | 4.3 | 0.00 | 0.00 | 0.00 | 63 | 1008.0 |
| 20260505031533 | 57 | 174 | 0.9 | 4.3 | 0.00 | 0.00 | 0.00 | 64 | 1008.1 |
| 20260505031013 | 57 | 179 | 0.9 | 2.6 | 0.00 | 0.00 | 0.00 | 62 | 1008.1 |
| 20260505030513 | 58 | 0 | 0.0 | 4.3 | 0.00 | 0.00 | 0.00 | 61 | 1008.1 |
| 20260505030028 | 59 | 182 | 0.9 | 4.3 | 0.00 | 0.00 | 0.00 | 59 | 1008.1 |
| 20260505025516 | 59 | 185 | 1.7 | 4.3 | 0.00 | 0.00 | 0.00 | 59 | 1008.1 |
| 20260505025011 | 59 | 171 | 1.7 | 5.2 | 0.00 | 0.00 | 0.00 | 60 | 1008.3 |
| 20260505024528 | 58 | 171 | 0.9 | 5.2 | 0.00 | 0.00 | 0.00 | 61 | 1008.3 |
| 20260505024012 | 57 | 165 | 0.9 | 3.5 | 0.00 | 0.00 | 0.00 | 63 | 1008.3 |
| 20260505023512 | 57 | 0 | 0.0 | 2.6 | 0.00 | 0.00 | 0.00 | 65 | 1008.3 |
| 20260505023028 | 58 | 0 | 0.9 | 4.3 | 0.00 | 0.00 | 0.00 | 63 | 1008.3 |
| 20260505022510 | 58 | 166 | 0.9 | 5.2 | 0.00 | 0.00 | 0.00 | 61 | 1008.3 |
| 20260505022011 | 59 | 166 | 1.7 | 5.2 | 0.00 | 0.00 | 0.00 | 58 | 1008.4 |
| 20260505021529 | 59 | 160 | 1.7 | 5.2 | 0.00 | 0.00 | 0.00 | 58 | 1008.4 |
| 20260505021016 | 60 | 191 | 0.9 | 3.5 | 0.00 | 0.00 | 0.00 | 56 | 1008.3 |
| 20260505020512 | 60 | 192 | 0.9 | 4.3 | 0.00 | 0.00 | 0.00 | 56 | 1008.3 |
| 20260505020037 | 61 | 192 | 1.7 | 5.2 | 0.00 | 0.00 | 0.00 | 55 | 1008.2 |
| 20260505015513 | 61 | 180 | 2.6 | 5.2 | 0.00 | 0.00 | 0.00 | 55 | 1008.2 |
| 20260505015016 | 61 | 179 | 1.7 | 6.1 | 0.00 | 0.00 | 0.00 | 55 | 1008.2 |
| 20260505014530 | 62 | 177 | 1.7 | 6.1 | 0.00 | 0.00 | 0.00 | 53 | 1008.2 |
| 20260505014014 | 62 | 191 | 1.7 | 5.2 | 0.00 | 0.00 | 0.00 | 53 | 1008.2 |
| 20260505013512 | 62 | 195 | 1.7 | 10.4 | 0.00 | 0.00 | 0.00 | 53 | 1008.0 |
| 20260505013030 | 63 | 169 | 2.6 | 10.4 | 0.00 | 0.00 | 0.00 | 52 | 1008.0 |
| 20260505012512 | 63 | 171 | 4.3 | 9.6 | 0.00 | 0.00 | 0.00 | 52 | 1008.0 |
| 20260505012012 | 63 | 188 | 2.6 | 8.7 | 0.00 | 0.00 | 0.00 | 52 | 1008.0 |
| 20260505011530 | 63 | 187 | 4.3 | 8.7 | 0.00 | 0.00 | 0.00 | 51 | 1008.0 |
| 20260505011013 | 63 | 207 | 4.3 | 9.6 | 0.00 | 0.00 | 0.00 | 51 | 1008.0 |
| 20260505010509 | 64 | 180 | 6.1 | 9.6 | 0.00 | 0.00 | 0.00 | 51 | 1007.9 |
| 20260505010027 | 63 | 159 | 4.3 | 8.7 | 0.00 | 0.00 | 0.00 | 50 | 1007.9 |
| 20260505005509 | 63 | 192 | 3.5 | 8.7 | 0.00 | 0.00 | 0.00 | 51 | 1007.9 |
| 20260505005012 | 64 | 201 | 4.3 | 8.7 | 0.00 | 0.00 | 0.00 | 50 | 1007.8 |
| 20260505004528 | 63 | 199 | 4.3 | 8.7 | 0.00 | 0.00 | 0.00 | 50 | 1007.7 |
| 20260505004010 | 63 | 192 | 4.3 | 8.7 | 0.00 | 0.00 | 0.00 | 50 | 1007.7 |
| 20260505003516 | 64 | 188 | 2.6 | 8.7 | 0.00 | 0.00 | 0.00 | 50 | 1007.6 |
| 20260505003027 | 64 | 182 | 5.2 | 8.7 | 0.00 | 0.00 | 0.00 | 49 | 1007.4 |
| 20260505002512 | 64 | 179 | 2.6 | 10.4 | 0.00 | 0.00 | 0.00 | 50 | 1007.3 |
| 20260505002013 | 64 | 173 | 3.5 | 11.3 | 0.00 | 0.00 | 0.00 | 49 | 1007.2 |
| 20260505001528 | 63 | 195 | 4.3 | 11.3 | 0.00 | 0.00 | 0.00 | 50 | 1007.2 |
| 20260505001012 | 63 | 190 | 1.7 | 6.1 | 0.00 | 0.00 | 0.00 | 51 | 1007.3 |
| 20260505000513 | 63 | 220 | 2.6 | 6.1 | 0.00 | 0.00 | 0.00 | 50 | 1007.3 |
| 20260505000042 | 64 | 189 | 1.7 | 4.3 | 0.00 | 0.00 | 0.00 | 49 | 1007.1 |
| 20260504235510 | 64 | 184 | 0.9 | 8.7 | 0.00 | 0.00 | 0.00 | 50 | 1007.1 |
| 20260504235012 | 65 | 184 | 1.7 | 8.7 | 0.00 | 0.00 | 0.00 | 50 | 1007.1 |
| 20260504234528 | 65 | 181 | 3.5 | 7.8 | 0.00 | 0.00 | 0.00 | 47 | 1007.1 |
| 20260504234012 | 65 | 196 | 4.3 | 7.8 | 0.00 | 0.00 | 0.00 | 47 | 1007.0 |
| 20260504233512 | 65 | 163 | 2.6 | 6.1 | 0.00 | 0.00 | 0.00 | 47 | 1007.0 |
| 20260504233030 | 66 | 190 | 3.5 | 7.0 | 0.00 | 0.00 | 0.00 | 47 | 1006.9 |
| 20260504232511 | 66 | 198 | 2.6 | 8.7 | 0.00 | 0.00 | 0.00 | 46 | 1007.0 |
| 20260504232012 | 67 | 216 | 4.3 | 13.9 | 0.00 | 0.00 | 0.00 | 45 | 1006.9 |
| 20260504231530 | 67 | 204 | 5.2 | 13.9 | 0.00 | 0.00 | 0.00 | 46 | 1007.0 |
| 20260504231019 | 67 | 203 | 4.3 | 9.6 | 0.00 | 0.00 | 0.00 | 44 | 1006.9 |
| 20260504230511 | 68 | 205 | 4.3 | 11.3 | 0.00 | 0.00 | 0.00 | 43 | 1006.8 |
| 20260504230028 | 68 | 185 | 6.1 | 11.3 | 0.00 | 0.00 | 0.00 | 43 | 1006.7 |
| 20260504225514 | 68 | 201 | 5.2 | 9.6 | 0.00 | 0.00 | 0.00 | 43 | 1006.8 |
| 20260504225012 | 68 | 225 | 4.3 | 9.6 | 0.00 | 0.00 | 0.00 | 43 | 1006.7 |
| 20260504224528 | 68 | 243 | 2.6 | 9.6 | 0.00 | 0.00 | 0.00 | 45 | 1006.7 |
| 20260504224013 | 69 | 188 | 4.3 | 12.2 | 0.00 | 0.00 | 0.00 | 43 | 1006.6 |
| 20260504223512 | 69 | 230 | 4.3 | 12.2 | 0.00 | 0.00 | 0.00 | 43 | 1006.7 |
| 20260504223028 | 69 | 174 | 5.2 | 13.9 | 0.00 | 0.00 | 0.00 | 41 | 1006.7 |
| 20260504222511 | 69 | 215 | 6.1 | 14.8 | 0.00 | 0.00 | 0.00 | 42 | 1006.6 |
| 20260504222010 | 69 | 213 | 9.6 | 14.8 | 0.00 | 0.00 | 0.00 | 41 | 1006.6 |
| 20260504221529 | 69 | 194 | 6.1 | 13.9 | 0.00 | 0.00 | 0.00 | 42 | 1006.6 |
| 20260504221011 | 69 | 223 | 7.8 | 13.9 | 0.00 | 0.00 | 0.00 | 41 | 1006.7 |
| 20260504220513 | 69 | 184 | 6.1 | 13.0 | 0.00 | 0.00 | 0.00 | 43 | 1006.7 |
| 20260504220042 | 69 | 169 | 7.0 | 16.5 | 0.00 | 0.00 | 0.00 | 42 | 1006.8 |
| 20260504215513 | 69 | 186 | 8.7 | 13.9 | 0.00 | 0.00 | 0.00 | 41 | 1006.6 |
| 20260504215013 | 69 | 173 | 6.1 | 11.3 | 0.00 | 0.00 | 0.00 | 42 | 1006.5 |
| 20260504214534 | 69 | 178 | 3.5 | 15.6 | 0.00 | 0.00 | 0.00 | 41 | 1006.5 |
| 20260504214012 | 69 | 180 | 7.0 | 15.6 | 0.00 | 0.00 | 0.00 | 40 | 1006.6 |
| 20260504213512 | 69 | 161 | 5.2 | 9.6 | 0.00 | 0.00 | 0.00 | 43 | 1006.7 |
| 20260504213031 | 69 | 173 | 5.2 | 11.3 | 0.00 | 0.00 | 0.00 | 43 | 1006.7 |
| 20260504212511 | 69 | 242 | 4.3 | 15.6 | 0.00 | 0.00 | 0.00 | 44 | 1006.7 |
| 20260504212011 | 69 | 205 | 5.2 | 15.6 | 0.00 | 0.00 | 0.00 | 43 | 1006.8 |
| 20260504211536 | 69 | 150 | 6.1 | 13.9 | 0.00 | 0.00 | 0.00 | 42 | 1006.9 |
| 20260504211012 | 69 | 252 | 5.2 | 14.8 | 0.00 | 0.00 | 0.00 | 43 | 1007.0 |
| 20260504210512 | 68 | 169 | 7.0 | 14.8 | 0.00 | 0.00 | 0.00 | 44 | 1007.1 |
| 20260504210026 | 68 | 200 | 6.1 | 10.4 | 0.00 | 0.00 | 0.00 | 43 | 1007.0 |
| 20260504205512 | 68 | 221 | 7.0 | 12.2 | 0.00 | 0.00 | 0.00 | 42 | 1007.2 |
| 20260504205012 | 69 | 217 | 5.2 | 12.2 | 0.00 | 0.00 | 0.00 | 43 | 1007.1 |
| 20260504204538 | 68 | 215 | 4.3 | 9.6 | 0.00 | 0.00 | 0.00 | 41 | 1007.1 |
| 20260504204015 | 68 | 256 | 4.3 | 8.7 | 0.00 | 0.00 | 0.00 | 43 | 1007.3 |
| 20260504203514 | 68 | 242 | 2.6 | 13.0 | 0.00 | 0.00 | 0.00 | 40 | 1007.4 |
| 20260504203028 | 69 | 190 | 5.2 | 13.0 | 0.00 | 0.00 | 0.00 | 42 | 1007.4 |
| 20260504202513 | 69 | 215 | 5.2 | 10.4 | 0.00 | 0.00 | 0.00 | 40 | 1007.6 |
| 20260504202012 | 69 | 171 | 3.5 | 13.0 | 0.00 | 0.00 | 0.00 | 43 | 1007.6 |
| 20260504201528 | 69 | 239 | 5.2 | 13.0 | 0.00 | 0.00 | 0.00 | 43 | 1007.7 |
| 20260504201009 | 68 | 202 | 5.2 | 15.6 | 0.00 | 0.00 | 0.00 | 42 | 1007.7 |
| 20260504200513 | 68 | 185 | 8.7 | 15.6 | 0.00 | 0.00 | 0.00 | 41 | 1007.8 |
| 20260504200030 | 69 | 184 | 5.2 | 15.6 | 0.00 | 0.00 | 0.00 | 42 | 1007.9 |
| 20260504195511 | 68 | 200 | 4.3 | 11.3 | 0.00 | 0.00 | 0.00 | 41 | 1007.9 |
| 20260504195012 | 68 | 254 | 4.3 | 8.7 | 0.00 | 0.00 | 0.00 | 45 | 1007.9 |
| 20260504194528 | 67 | 227 | 4.3 | 12.2 | 0.00 | 0.00 | 0.00 | 44 | 1008.0 |
| 20260504194013 | 67 | 202 | 5.2 | 19.1 | 0.00 | 0.00 | 0.00 | 44 | 1008.0 |
| 20260504193512 | 67 | 246 | 5.2 | 19.1 | 0.00 | 0.00 | 0.00 | 40 | 1008.1 |
| 20260504193030 | 67 | 227 | 7.0 | 17.4 | 0.00 | 0.00 | 0.00 | 41 | 1008.1 |
| 20260504192514 | 67 | 200 | 4.3 | 13.9 | 0.00 | 0.00 | 0.00 | 42 | 1008.2 |
| 20260504192013 | 68 | 226 | 7.0 | 14.8 | 0.00 | 0.00 | 0.00 | 41 | 1008.3 |
| 20260504191529 | 67 | 202 | 6.1 | 15.6 | 0.00 | 0.00 | 0.00 | 43 | 1008.2 |
| 20260504191014 | 68 | 188 | 6.1 | 15.6 | 0.00 | 0.00 | 0.00 | 43 | 1008.4 |
| 20260504190514 | 67 | 211 | 5.2 | 13.9 | 0.00 | 0.00 | 0.00 | 42 | 1008.5 |
| 20260504190030 | 66 | 218 | 4.3 | 13.9 | 0.00 | 0.00 | 0.00 | 48 | 1008.5 |
| 20260504185512 | 66 | 209 | 7.8 | 13.9 | 0.00 | 0.00 | 0.00 | 46 | 1008.5 |
| 20260504185016 | 65 | 209 | 5.2 | 9.6 | 0.00 | 0.00 | 0.00 | 46 | 1008.5 |
| 20260504184527 | 66 | 200 | 4.3 | 10.4 | 0.00 | 0.00 | 0.00 | 46 | 1008.5 |
| 20260504184015 | 65 | 219 | 5.2 | 13.9 | 0.00 | 0.00 | 0.00 | 48 | 1008.6 |
| 20260504183030 | 65 | 184 | 6.1 | 13.9 | 0.00 | 0.00 | 0.00 | 45 | 1008.6 |
| 20260504182509 | 65 | 248 | 7.0 | 16.5 | 0.00 | 0.00 | 0.00 | 47 | 1008.7 |
| 20260504182010 | 65 | 179 | 9.6 | 16.5 | 0.00 | 0.00 | 0.00 | 43 | 1008.7 |
| 20260504181531 | 66 | 232 | 6.1 | 17.4 | 0.00 | 0.00 | 0.00 | 45 | 1008.6 |
| 20260504181010 | 65 | 221 | 7.0 | 17.4 | 0.00 | 0.00 | 0.00 | 44 | 1008.7 |
| 20260504180511 | 66 | 180 | 3.5 | 12.2 | 0.00 | 0.00 | 0.00 | 48 | 1008.8 |
| 20260504180028 | 67 | 244 | 5.2 | 16.5 | 0.00 | 0.00 | 0.00 | 43 | 1008.7 |
| 20260504175512 | 66 | 239 | 6.1 | 16.5 | 0.00 | 0.00 | 0.00 | 44 | 1008.8 |
| 20260504175015 | 65 | 204 | 7.0 | 15.6 | 0.00 | 0.00 | 0.00 | 42 | 1008.8 |
| 20260504174530 | 66 | 204 | 5.2 | 15.6 | 0.00 | 0.00 | 0.00 | 47 | 1008.9 |
| 20260504174010 | 65 | 200 | 7.0 | 14.8 | 0.00 | 0.00 | 0.00 | 46 | 1008.8 |
| 20260504173512 | 65 | 189 | 4.3 | 15.6 | 0.00 | 0.00 | 0.00 | 47 | 1008.9 |
| 20260504173030 | 65 | 211 | 7.0 | 15.6 | 0.00 | 0.00 | 0.00 | 47 | 1008.9 |
| 20260504172512 | 66 | 209 | 5.2 | 11.3 | 0.00 | 0.00 | 0.00 | 43 | 1009.1 |
| 20260504172012 | 65 | 266 | 6.1 | 11.3 | 0.00 | 0.00 | 0.00 | 47 | 1009.3 |